This demonstration page uses our WeatherBlox Daily Observations layout. Learn more.

Left ArrowRight Arrow

41.86663, -103.66717

Hourly Observations for September 29, 2021

Temp ( °F °C ) Dew Point ( °F °C ) Humidity (%) Winds ( mph kmh ) Pressure ( in mb ) Visibility ( mi km ) Precip ( " mm )
12:53 am 00:53 Mostly Clear 61 16.1 47 8.3 60 60 E 8 13 29.59 1002 10 16 0.00 0.00
1:53 am 01:53 Mostly Cloudy 63 17.2 47 8.3 56 56 SE 7 11 29.61 1003 10 16 0.00 0.00
2:53 am 02:53 Cloudy with Light Rain 60 15.6 51 10.6 72 72 Calm 29.62 1003 10 16 0.01 0.25
3:53 am 03:53 Mostly Clear 59 15 51 10.6 75 75 Calm 29.62 1003 10 16 0.00 0.00
4:53 am 04:53 Mostly Cloudy 57 13.9 52 11.1 83 83 E 3 6 29.67 1005 10 16 0.00 0.00
5:53 am 05:53 Cloudy 57 13.9 51 10.6 81 81 SE 3 6 29.69 1006 10 16 0.00 0.00
6:53 am 06:53 Mostly Cloudy 56 13.3 49 9.4 77 77 WNW 14 22 29.75 1007 10 16 0.00 0.00
7:53 am 07:53 Cloudy 55 12.8 45 7.2 69 69 WNW 15 24 29.79 1009 10 16 0.00 0.00
8:53 am 08:53 Cloudy with Light Rain 52 11.1 44 6.7 75 75 WNW 10 17 29.81 1010 10 16 0.01 0.25
9:31 am 09:31 Partly Cloudy 55 12.8 45 7.2 69 69 WNW 16 26 29.84 1011 10 16 0.00 0.00
9:53 am 09:53 Sunny 59 15 47 8.3 64 64 NW 14 22 29.84 1011 10 16 0.00 0.00
10:10 am 10:10 Mostly Cloudy 59 15 47 8.3 64 64 N 23 37 29.84 1011 10 16 0.00 0.00
10:53 am 10:53 Cloudy 58 14.4 47 8.3 67 67 N 20 31 29.88 1012 10 16 0.00 0.00
11:15 am 11:15 Cloudy 58 14.4 46 7.8 65 65 N 18 30 29.88 1012 10 16 0.00 0.00
11:35 am 11:35 Cloudy 58 14.4 46 7.8 65 65 NNW 15 24 29.89 1012 10 16 0.00 0.00
11:48 am 11:48 Cloudy 57 14 45 7 63 63 NNW 15 24 29.90 1012 10 16 0.00 0.00
11:53 am 11:53 Cloudy 57 13.9 44 6.7 62 62 NNW 18 30 29.92 1013 10 16 0.00 0.00
12:53 pm 12:53 Cloudy 55 12.8 41 5 59 59 NW 22 35 29.94 1014 10 16 0.00 0.00
1:41 pm 13:41 Cloudy 54 12.2 39 3.9 57 57 NNW 21 33 29.95 1014 10 16 0.00 0.00
1:51 pm 13:51 Cloudy 54 12 39 4 58 58 NNW 21 33 29.96 1014 10 16 0.00 0.00
1:53 pm 13:53 Cloudy 54 12.2 39 3.9 57 57 NNW 22 35 29.96 1014 10 16 0.00 0.00
2:35 pm 14:35 Cloudy 53 11.7 40 4.4 61 61 NW 20 31 29.98 1015 10 16 0.00 0.00
2:53 pm 14:53 Cloudy 53 11.7 40 4.4 61 61 NW 17 28 29.99 1016 10 16 0.00 0.00
3:07 pm 15:07 Cloudy 53 11.7 39 3.9 59 59 NW 20 31 29.99 1016 10 16 0.00 0.00
3:53 pm 15:53 Cloudy 52 11.1 39 3.9 61 61 NNW 20 31 30.01 1016 10 16 0.00 0.00
4:53 pm 16:53 Cloudy with Light Rain 49 9.4 40 4.4 71 71 NNW 18 30 30.07 1018 9 14 0.00 0.00
5:53 pm 17:53 Cloudy 48 8.9 42 5.6 80 80 NNW 12 19 30.10 1019 10 16 0.00 0.00
6:53 pm 18:53 Cloudy 48 8.9 40 4.4 74 74 NW 13 20 30.13 1020 10 16 0.00 0.00
7:42 pm 19:42 Cloudy 48 9 39 4 71 71 NW 13 20 30.14 1021 10 16 0.00 0.00
7:53 pm 19:53 Cloudy 48 8.9 39 3.9 71 71 NW 14 22 30.13 1020 10 16 0.00 0.00
8:21 pm 20:21 Cloudy 48 8.9 39 3.9 71 71 NW 14 22 30.15 1021 10 16 0.00 0.00
8:53 pm 20:53 Cloudy 47 8.3 38 3.3 71 71 NW 13 20 30.16 1021 10 16 0.00 0.00
9:53 pm 21:53 Cloudy 48 8.9 38 3.3 68 68 WNW 10 17 30.16 1021 10 16 0.00 0.00
10:46 pm 22:46 Cloudy 48 8.9 39 3.9 71 71 NW 10 17 30.18 1022 10 16 0.00 0.00
10:53 pm 22:53 Cloudy 48 8.9 39 3.9 71 71 NW 9 15 30.17 1022 10 16 0.00 0.00
11:53 pm 23:53 Cloudy 48 8.9 39 3.9 71 71 WNW 8 13 30.19 1022 10 16 0.00 0.00

Powered by AerisWeather